Tracking 26894 objects as of 2-Feb-2023
HD Live streaming from Space Station
objects crossing your sky now

NOAA 17 DEB

Track NOAA 17 DEB now!
10-day predictions


NORAD ID: 48727
Int'l Code: 2002-032BM
Perigee: 757.7 km
Apogee: 827.8 km
Inclination: 98.8 °
Period: 100.6 minutes
Semi major axis: 7163 km
RCS: Unknown
Launch date: June 24, 2002
Source: United States (US)
Launch site: AIR FORCE WESTERN TEST RANGE (AFWTR)

Note: This is SATELLITE DEBRIS
Your satellite tracking list
Your tracking list is empty




NASA's NSSDC Master Catalog

Two Line Element Set (TLE):
1 48727U 02032BL  23031.34296280  .00010413  00000-0  38540-2 0  9999
2 48727  98.7630 350.1994 0048881  39.9510 320.5253 14.31831238 93635
Source of the keplerian elements: AFSPC